Regional Weather Roundup
Issued by NWS

Home | Current Version | Previous Version | Text Only | Print | Product List | Glossary Off
Versions: 1 2 3 4 5 6 7 8 9 10 11 12 13 14 15 16 17 18 19 20 21 22 23 24 25 26 27 28 29 30 31 32 33 34 35 36 37 38 39 40 41 42 43 44 45 46 47 48 49 50

000
ASUS44 KMEG 241110
RWRTN
TENNESSEE HOURLY STATE WEATHER ROUNDUP
NATIONAL WEATHER SERVICE MEMPHIS TN
600 AM CDT THU JUL 24 2014

TNZ002-004-019-021-049-052-054-088>092-241200-
WEST TENNESSEE

CITY           SKY/WX    TMP DP  RH WIND       PRES   REMARKS
MEMPHIS INTL   PTCLDY    72  68  87 NE6       30.02R
NWS MEMPHIS      N/A     70 N/A N/A MISG        N/A
JACKSON        CLEAR     69  66  90 N8        30.01R
DYERSBURG      CLEAR     66  55  68 N6        30.04R
UNION CITY     CLEAR     61  57  88 N6        30.03R
PARIS          CLEAR     61  58  90 N5        30.02R
LEXINGTON      PTCLDY    68  66  94 CALM      29.99R
$$

TNZ008-025-027-028-033-062-065-066-241200-
NORTH MIDDLE TENNESSEE

CITY           SKY/WX    TMP DP  RH WIND       PRES   REMARKS
NASHVILLE      CLOUDY    73  69  87 NW6       29.98R
DICKSON          N/A     68  66  94 NW6       30.00R
CLARKSVILLE    CLOUDY    70  61  73 N8        29.99R
LEBANON        CLOUDY    71  69  93 CALM      29.96R
SMYRNA         CLOUDY    73  73 100 NW6       29.99R FOG
MURFREESBORO   CLOUDY    70  69  96 CALM      29.97
COOKEVILLE     CLOUDY    70  70 100 CALM      29.98S
LIVINGSTON     CLOUDY    67  67 100 SW3       29.99R
GALLATIN       PTCLDY    72  72 100 NW5       29.98R
CROSSVILLE     CLOUDY    67  66  97 CALM      30.02R
$$

TNZ061-075-076-078-094-096-097-241200-
SOUTH MIDDLE TENNESSEE

CITY           SKY/WX    TMP DP  RH WIND       PRES   REMARKS
LEWISBURG      MOCLDY    68  66  93 CALM      29.98R
FAYETTEVILLE   CLOUDY    70  70 100 CALM      29.99R
TULLAHOMA      CLOUDY    68  68 100 CALM      30.00R
WINCHESTER     CLOUDY    72  72 100 N3        29.99R
MCMINNVILLE    CLOUDY    70  70 100 CALM      29.99S
COLUMBIA       CLOUDY    72  70  94 VRB5      29.98R
SHELBYVILLE    CLOUDY    72  72 100 S5        29.99S VSB 1/2
$$

TNZ017-018-042-046-047-241200-
NORTHEAST TENNESSEE

CITY           SKY/WX    TMP DP  RH WIND       PRES   REMARKS
TRI CITIES     CLOUDY    70  66  87 CALM      29.99R FOG
ELIZABETHTON   MOSUNNY   66  66 100 CALM      30.00R
$$

TNZ012-013-036-069-073-074-241200-
CENTRAL EAST TENNESSEE

CITY           SKY/WX    TMP DP  RH WIND       PRES   REMARKS
KNOXVILLE      CLOUDY    72  69  90 W7        29.97R
OAK RIDGE      CLOUDY    71  69  93 CALM      29.98S
GATLINBURG     CLOUDY    70  66  88 CALM      29.97R
MORRISTOWN     CLOUDY    70  70 100 CALM      29.99S VSB 3/4
$$

TNZ083-085-099-241200-
SOUTHEAST TENNESSEE

CITY           SKY/WX    TMP DP  RH WIND       PRES   REMARKS
CHATTANOOGA    PTCLDY    72  69  90 CALM      29.97R
$$

SKY/WX REPORTED AS FAIR MEANS FEW OR NO CLOUDS BELOW
12 THOUSAND FEET.



USA.gov is the U.S. government's official web portal to all federal, state and local government web resources and services.